TimeEDT,TemperatureF,Dew PointF,Humidity,Sea Level PressureIn,VisibilityMPH,Wind Direction,Wind SpeedMPH,Gust SpeedMPH,PrecipitationIn,Events,Conditions,WindDirDegrees,DateUTC
12:54 AM,44.1,37.9,79,29.56,10.0,WSW,5.8,-,N/A,,Overcast,250,2012-11-02 04:54:00
1:54 AM,43.0,37.9,82,29.56,10.0,WSW,5.8,-,N/A,,Scattered Clouds,250,2012-11-02 05:54:00
2:20 AM,42.8,37.4,81,29.54,10.0,West,6.9,-,N/A,,Mostly Cloudy,260,2012-11-02 06:20:00
2:54 AM,43.0,37.9,82,29.56,10.0,West,6.9,-,N/A,,Mostly Cloudy,260,2012-11-02 06:54:00
3:54 AM,43.0,37.9,82,29.55,10.0,West,5.8,-,N/A,,Overcast,260,2012-11-02 07:54:00
4:54 AM,43.0,37.9,82,29.55,10.0,West,6.9,-,N/A,,Mostly Cloudy,270,2012-11-02 08:54:00
5:54 AM,42.1,37.9,85,29.55,10.0,WSW,5.8,-,N/A,,Clear,240,2012-11-02 09:54:00
6:54 AM,42.1,37.9,85,29.56,10.0,West,6.9,-,N/A,,Scattered Clouds,260,2012-11-02 10:54:00
7:54 AM,43.0,37.9,82,29.57,10.0,West,10.4,-,N/A,,Mostly Cloudy,260,2012-11-02 11:54:00
8:54 AM,43.0,36.0,76,29.57,10.0,West,5.8,-,N/A,,Clear,260,2012-11-02 12:54:00
9:54 AM,44.1,35.1,71,29.58,10.0,West,6.9,-,N/A,,Mostly Cloudy,280,2012-11-02 13:54:00
10:54 AM,45.0,35.1,68,29.58,10.0,West,9.2,-,N/A,,Overcast,270,2012-11-02 14:54:00
11:16 AM,44.6,35.6,71,29.57,10.0,WNW,11.5,-,N/A,,Overcast,300,2012-11-02 15:16:00
11:36 AM,44.6,33.8,66,29.56,10.0,WNW,9.2,-,0.00,Rain,Light Rain,290,2012-11-02 15:36:00
11:54 AM,46.0,35.1,66,29.58,10.0,Variable,6.9,-,0.00,,Overcast,0,2012-11-02 15:54:00
12:01 PM,46.4,33.8,62,29.56,10.0,WNW,12.7,18.4,N/A,,Overcast,300,2012-11-02 16:01:00
12:13 PM,46.4,33.8,62,29.55,10.0,West,10.4,-,N/A,,Overcast,270,2012-11-02 16:13:00
12:54 PM,46.0,34.0,63,29.56,10.0,WNW,16.1,20.7,N/A,,Overcast,290,2012-11-02 16:54:00
1:54 PM,46.9,33.1,59,29.55,10.0,WNW,13.8,-,N/A,,Mostly Cloudy,300,2012-11-02 17:54:00
2:54 PM,46.9,33.1,59,29.55,10.0,WNW,13.8,20.7,N/A,,Overcast,300,2012-11-02 18:54:00
3:54 PM,46.9,32.0,56,29.56,10.0,WNW,9.2,-,N/A,,Overcast,290,2012-11-02 19:54:00
4:54 PM,46.0,33.1,61,29.57,10.0,WNW,9.2,-,0.00,Rain,Light Rain,300,2012-11-02 20:54:00
5:54 PM,45.0,32.0,60,29.59,10.0,WNW,12.7,16.1,0.00,,Overcast,290,2012-11-02 21:54:00
6:54 PM,44.1,30.9,60,29.60,10.0,WNW,8.1,-,N/A,,Mostly Cloudy,300,2012-11-02 22:54:00
7:54 PM,44.1,30.9,60,29.62,10.0,WNW,8.1,-,N/A,,Overcast,300,2012-11-02 23:54:00
8:54 PM,43.0,32.0,65,29.63,10.0,WNW,10.4,-,N/A,,Overcast,290,2012-11-03 00:54:00
9:54 PM,42.1,32.0,67,29.63,10.0,WNW,11.5,-,N/A,,Overcast,300,2012-11-03 01:54:00
10:54 PM,41.0,32.0,70,29.63,10.0,WNW,10.4,-,N/A,,Overcast,300,2012-11-03 02:54:00
11:54 PM,39.9,32.0,73,29.63,10.0,WNW,12.7,-,N/A,,Clear,300,2012-11-03 03:54:00